Location: Poughquag
(41.6090°N, 73.6820°W)
Time: 16:04:54
(UTC-04:00)

Hubble Space Telescope - Visible Passes

Search period start: 23 March 2017 00:00
Search period end: 02 April 2017 00:00
Orbit: 538 x 542 km, 28.5° (Epoch: 22 March)

Date Brightness Start Highest point End Pass type
(mag) Time Alt. Az. Time Alt. Az. Time Alt. Az.
28 Mar 3.2 05:05:30 10° S 05:06:02 10° SSE 05:06:34 10° SSE visible
29 Mar 3.2 04:56:00 11° S 04:56:00 11° S 04:57:12 10° SSE visible
30 Mar 3.2 04:46:30 12° SSE 04:46:30 12° SSE 04:47:23 10° SSE visible
31 Mar 3.3 04:37:01 11° SSE 04:37:01 11° SSE 04:37:27 10° SSE visible
01 Apr 3.1 06:05:26 10° SSW 06:05:51 10° SSW 06:06:16 10° S visible
